Lake O' the Pines Weather Center

Moon Phase Calendar



Lake O' the Pines Water Level
Online Cameras

 


      

Current Conditions in Ore City
6/13/2021 2:54:33 PM

96°F
Feels Like 105
Clouds
Humidity
47%
Pressure
29.88"
Wind
6.1 mph (N)
Dew Point
72°F
UV Index
9/10 (Very High)
Visibility
6 mi

Hourly Forecast

Date & Time Sun, Jun 13
2:00 PM
Sun, Jun 13
3:00 PM
Sun, Jun 13
4:00 PM
Sun, Jun 13
5:00 PM
Sun, Jun 13
6:00 PM
Sun, Jun 13
7:00 PM
Sun, Jun 13
8:00 PM
Sun, Jun 13
9:00 PM
Sun, Jun 13
10:00 PM
Sun, Jun 13
11:00 PM
Mon, Jun 14
12:00 AM
Mon, Jun 14
1:00 AM
Mon, Jun 14
2:00 AM
Mon, Jun 14
3:00 AM
Mon, Jun 14
4:00 AM
Mon, Jun 14
5:00 AM
Mon, Jun 14
6:00 AM
Mon, Jun 14
7:00 AM
Mon, Jun 14
8:00 AM
Mon, Jun 14
9:00 AM
Mon, Jun 14
10:00 AM
Mon, Jun 14
11:00 AM
Mon, Jun 14
12:00 PM
Mon, Jun 14
1:00 PM
Mon, Jun 14
2:00 PM
Mon, Jun 14
3:00 PM
Mon, Jun 14
4:00 PM
Mon, Jun 14
5:00 PM
Mon, Jun 14
6:00 PM
Mon, Jun 14
7:00 PM
Mon, Jun 14
8:00 PM
Mon, Jun 14
9:00 PM
Mon, Jun 14
10:00 PM
Mon, Jun 14
11:00 PM
Tue, Jun 15
12:00 AM
Tue, Jun 15
1:00 AM
Tue, Jun 15
2:00 AM
Tue, Jun 15
3:00 AM
Tue, Jun 15
4:00 AM
Tue, Jun 15
5:00 AM
Tue, Jun 15
6:00 AM
Tue, Jun 15
7:00 AM
Tue, Jun 15
8:00 AM
Tue, Jun 15
9:00 AM
Tue, Jun 15
10:00 AM
Tue, Jun 15
11:00 AM
Tue, Jun 15
12:00 PM
Tue, Jun 15
1:00 PM
Condition
Clouds

Clouds

Clouds

Clouds

Clouds

Clouds

Clouds

Clouds

Clouds

Rain

Rain

Clouds

Rain

Clouds

Clouds

Clouds

Clouds

Clouds

Clouds

Clouds

Clouds

Clouds

Clouds

Clouds

Clouds

Clouds

Clouds

Clouds

Clouds

Clouds

Clouds

Clouds

Clouds

Clouds

Clouds

Clouds

Clear

Clear

Clear

Clear

Clear

Clear

Clear

Clear

Clouds

Clouds

Clouds

Clouds
Temperature 96°F96°F96°F96°F95°F92°F85°F84°F81°F78°F78°F77°F75°F74°F74°F74°F73°F73°F76°F80°F85°F88°F91°F93°F94°F95°F94°F93°F90°F86°F82°F81°F80°F78°F77°F75°F74°F73°F72°F72°F71°F72°F76°F80°F83°F86°F89°F91°F
Feels Like 106°F105°F105°F106°F106°F104°F95°F91°F87°F80°F79°F79°F77°F76°F75°F75°F75°F75°F78°F86°F93°F96°F99°F100°F100°F100°F101°F100°F98°F94°F89°F85°F80°F79°F78°F76°F75°F74°F73°F73°F72°F73°F77°F80°F88°F92°F93°F95°F
Cloudiness 70%63%60%55%47%38%14%22%47%43%54%51%51%75%83%87%90%91%59%61%72%70%59%53%91%96%97%98%98%99%33%40%54%57%46%39%0%0%0%0%0%0%0%1%12%22%37%41%
Visibility 6 mi6 mi6 mi6 mi6 mi6 mi6 mi6 mi6 mi6 mi6 mi6 mi6 mi6 mi6 mi6 mi6 mi6 mi6 mi6 mi6 mi6 mi6 mi6 mi6 mi6 mi6 mi6 mi6 mi6 mi6 mi6 mi6 mi6 mi6 mi6 mi6 mi6 mi6 mi6 mi6 mi6 mi6 mi6 mi6 mi6 mi6 mi6 mi
Precipitation 2%0%0%0%0%0%7%7%13%36%40%73%45%33%26%26%20%20%0%0%0%0%0%0%0%0%0%0%0%0%0%0%0%0%0%0%0%0%0%0%0%0%0%0%0%0%0%0%
Humidity 48%47%46%48%52%64%75%74%78%87%90%91%94%95%95%96%96%95%92%83%69%61%55%50%45%43%45%50%58%66%75%72%72%73%74%77%81%84%87%89%91%90%82%73%65%59%50%44%
Dew Point 73°F72°F72°F73°F74°F78°F76°F74°F74°F74°F74°F74°F73°F73°F72°F72°F72°F72°F74°F74°F74°F73°F72°F71°F69°F68°F69°F71°F73°F74°F74°F71°F70°F69°F68°F67°F67°F68°F68°F68°F68°F69°F70°F70°F70°F70°F68°F66°F
Pressure 29.88"29.88"29.88"29.88"29.85"29.85"29.85"29.85"29.88"29.88"29.88"29.91"29.91"29.91"29.91"29.91"29.91"29.94"29.94"29.97"29.97"29.97"29.94"29.94"29.91"29.91"29.91"29.88"29.88"29.88"29.91"29.91"29.94"29.94"29.94"29.94"29.94"29.97"29.97"29.97"29.97"30"30.03"30.03"30.03"30.03"30"30"
Wind Speed 4.8 mph6.1 mph5.8 mph4.8 mph5.4 mph1.8 mph4.1 mph2.6 mph0.7 mph2.2 mph2.4 mph2.2 mph2.2 mph1.7 mph1.7 mph3.6 mph4.5 mph4.3 mph4.8 mph6.4 mph6.9 mph7 mph6.7 mph6.3 mph6.2 mph6.4 mph6.3 mph6.8 mph7 mph6.8 mph4.6 mph5 mph5.1 mph5.4 mph5.4 mph4.9 mph4.7 mph4.4 mph4.3 mph4.2 mph4.1 mph4 mph4.6 mph4.2 mph4 mph4 mph3.8 mph3.3 mph
Wind
Direction

N
360°
N
358°
N
348°
NNW
314°
NW
277°
W
308°
NW
309°
NW
105°
ESE
122°
ESE
324°
NW
340°
NNW
135°
SE
161°
SSE
104°
ESE
61°
ENE
66°
ENE
67°
ENE
59°
ENE
60°
ENE
58°
ENE
54°
NE
52°
NE
61°
ENE
62°
ENE
60°
ENE
48°
NE
29°
NNE
14°
NNE
16°
NNE
18°
NNE
21°
NNE
44°
NE
75°
ENE
86°
E
75°
ENE
59°
ENE
57°
ENE
57°
ENE
54°
NE
59°
ENE
54°
NE
68°
ENE
70°
ENE
70°
ENE
68°
ENE
68°
ENE
58°
ENE

Daily Forecast

Date High Low Precip. Humidity
Today
Jun 13

Rain
96 °F
73 °F
36%
49%
Monday
Jun 14

Rain
95 °F
73 °F
73%
50%
Tuesday
Jun 15

Clouds
93 °F
71 °F
0%
44%
Wednesday
Jun 16

Clear
94 °F
72 °F
0%
47%
Thursday
Jun 17

Rain
92 °F
74 °F
37%
51%
Friday
Jun 18

Rain
93 °F
73 °F
20%
47%
Saturday
Jun 19

Clear
92 °F
71 °F
0%
48%
Sunday
Jun 20

Rain
84 °F
70 °F
20%
67%
Monday
Jun 21

Clouds
91 °F
69 °F
0%
53%
Tuesday
Jun 22

Clouds
95 °F
73 °F
19%
64%
Wednesday
Jun 23

Rain
95 °F
75 °F
20%
47%
Thursday
Jun 24

Rain
92 °F
76 °F
57%
65%
Friday
Jun 25

Rain
92 °F
75 °F
37%
54%
Saturday
Jun 26

Rain
95 °F
76 °F
32%
48%
Sunday
Jun 27

Clear
95 °F
77 °F
0%
46%
Monday
Jun 28

Clear
95 °F
76 °F
0%
46%

Temperature 8-14 Day Outlook



Precipitation 8-14 Day Outlook




Quick Links
Lake O' the Pines News
Lake O' the Pines Photos
Lake O' the Pines Videos




About Us
Contact Us
Site Map
Search Site
Advertise With Us
   
Pines.USLakes.info
THE LAKE O' THE PINES WEBSITE

Copyright 2021, Lakes Online
Privacy    |    Legal